Temp
4 4 5 5 4 4 4 4 5 6 5 6 7 9 11 11 12 12 12 12 12 12 12 12 12 12 12 12 15 19 18 18 18 19 19 18 18 19 18 20 21 20 22 23 22 22 23
3 3 4 5 5 4 4 4 5 5 5 4 5 5 7 9 11 11 12 12 12 12 12 12 11 11 10 9 18 17 17 18 18 18 18 18 18 20 21 21 20 22 22 22 21 22 22
3 3 3 3 4 4 4 5 5 5 4 4 4 3 4 6 8 11 11 12 12 12 12 12 10 9 9 14 18 18 17 17 17 17 18 19 20 19 21 19 22 21 19 19 19 20 20
3 4 4 3 3 3 4 4 5 5 5 5 4 3 3 3 6 9 11 12 12 12 12 12 10 8 9 17 17 17 18 17 17 18 18 19 19 20 21 21 20 19 19 17 19 18 20
3 4 4 4 4 4 3 5 5 5 5 5 5 3 3 2 3 8 10 12 12 12 12 10 10 9 10 15 16 18 17 17 18 18 18 19 20 20 20 17 16 17 17 18 20 19 19
2 2 4 4 4 4 4 4 4 5 5 5 5 4 3 3 3 4 9 11 13 12 11 9 8 8 12 17 17 18 18 18 18 18 19 19 19 16 15 15 15 17 18 21 20 19 18
1 2 3 4 4 4 4 4 5 5 5 5 5 5 4 3 3 4 6 11 11 11 9 11 12 13 16 17 17 18 18 18 18 18 16 18 15 15 15 17 19 19 20 19 21 23 20
1 1 3 3 3 4 4 4 5 5 4 4 4 4 4 4 4 3 4 7 10 8 8 10 12 12 13 16 14 17 18 18 17 16 17 17 16 17 19 19 20 21 20 19 20 21 20
0 0 2 3 3 3 3 4 4 3 4 3 2 2 3 3 4 5 5 7 8 9 8 10 12 12 14 14 14 16 17 18 17 16 17 16 18 19 19 19 20 21 20 19 20 21 21
-0 0 1 2 3 3 3 4 4 4 4 4 2 2 3 3 4 5 5 6 7 9 7 11 14 14 14 15 15 16 18 18 17 17 17 17 19 20 20 20 21 19 21 21 21 19 17
-0 -1 -0 2 2 2 3 3 3 4 4 3 3 2 2 2 4 5 6 7 9 9 6 15 17 18 17 16 18 17 19 17 17 18 17 18 18 19 19 21 21 20 21 22 21 18 18
-1 -1 -0 1 2 2 2 2 2 2 2 2 2 2 2 2 3 6 5 6 8 8 8 15 18 17 17 16 17 19 17 17 19 18 18 18 21 20 20 21 21 22 21 19 20 18 15
-1 -0 1 1 1 1 1 1 1 1 1 1 1 2 2 2 3 4 4 5 6 7 15 16 17 17 16 16 16 17 16 16 15 15 16 18 18 20 22 20 20 20 19 14 13 13 13
-1 -1 -1 -1 -0 -0 -0 0 1 1 1 2 2 2 2 2 3 3 3 5 6 10 11 16 16 16 16 17 16 16 16 15 16 16 16 16 16 19 21 20 19 18 17 13 14 13 16
-1 -1 -1 -0 0 0 0 1 1 1 2 2 2 1 1 2 3 3 3 4 6 8 13 13 14 14 15 17 16 16 15 16 17 17 16 16 17 21 22 21 20 19 17 18 16 16 14
-1 -1 -1 -0 0 0 1 1 1 1 1 1 1 1 1 3 3 2 2 4 6 9 11 12 10 12 13 15 15 15 15 17 17 18 19 18 17 20 21 21 20 20 20 17 17 14 14
-1 -1 -1 -0 0 1 1 1 1 1 1 1 1 1 1 3 2 2 3 4 6 8 10 10 10 11 12 12 12 13 16 17 17 18 19 19 17 18 20 19 19 18 18 19 18 15 13
-1 -1 -1 -0 0 0 1 1 1 1 1 1 1 1 2 3 2 2 2 5 6 7 8 9 10 11 11 11 12 10 14 16 19 18 18 17 17 15 17 20 21 20 18 18 14 16 15
-1 -1 -1 -0 -0 0 1 1 1 1 1 0 0 1 1 2 3 2 4 5 5 6 7 9 9 11 11 12 11 10 14 15 18 17 16 16 15 13 15 18 20 19 19 19 18 16 15
-1 -1 -1 -0 -0 0 0 0 0 0 0 0 -0 1 1 2 3 4 3 4 5 6 6 8 9 10 10 10 12 8 9 14 16 16 17 16 14 14 14 16 19 18 19 19 17 13 15
-1 -1 -1 -0 -0 -0 0 0 0 0 0 0 -0 1 2 2 3 3 5 5 5 5 7 8 8 8 9 10 10 8 10 10 13 16 15 15 13 15 16 19 20 19 18 18 18 18 17
-1 -0 -0 -0 -0 -0 0 0 1 1 0 1 -0 1 3 4 4 3 4 4 5 6 8 8 7 8 10 9 10 9 9 9 10 14 14 14 13 15 15 17 19 19 19 18 19 19 19
-0 -0 0 0 0 0 1 1 1 1 1 1 1 2 3 4 4 3 4 5 6 7 8 9 9 8 8 9 10 9 9 7 8 10 13 15 13 14 13 16 17 14 16 19 19 19 18
-0 -0 0 0 0 1 1 1 1 1 1 1 1 1 3 3 4 4 5 5 6 7 7 9 10 9 10 11 10 9 9 8 8 8 11 12 13 11 10 12 13 17 19 19 18 20 20
-0 -0 0 0 0 0 0 1 0 1 1 1 1 1 2 2 4 5 5 6 6 7 7 8 10 11 12 12 9 7 6 7 8 9 11 13 12 10 11 12 15 17 18 18 18 17 20
-0 -0 -0 -0 0 0 0 0 0 0 1 1 1 1 2 3 4 6 6 6 6 5 6 8 9 10 11 9 8 7 6 8 10 11 12 13 11 9 9 11 11 15 17 20 20 14 20
-0 0 0 0 0 0 0 1 1 1 0 1 1 1 1 3 5 6 6 6 7 7 6 8 9 9 11 5 6 5 8 9 8 9 10 8 8 9 7 8 10 16 18 19 15 12 19
0 0 0 0 0 0 0 0 0 1 0 0 2 1 1 2 3 6 7 7 8 8 6 8 8 8 6 5 5 5 4 9 9 11 11 9 9 9 8 9 10 16 17 16 14 18 20
1 1 1 1 1 0 0 0 0 1 0 0 1 0 1 2 2 5 6 7 7 8 8 9 9 9 8 5 5 6 5 5 8 7 12 10 10 10 11 10 12 15 17 17 19 18 18
Height
1529 1530 1529 1528 1529 1528 1528 1528 1526 1525 1525 1523 1522 1521 1520 1520 1518 1518 1517 1515 1514 1512 1510 1507 1506 1504 1503 1504 1493 1493 1494 1494 1494 1494 1494 1496 1498 1496 1494 1489 1486 1484 1477 1476 1476 1474 1471
1528 1528 1527 1526 1525 1525 1524 1524 1523 1522 1522 1521 1519 1517 1516 1514 1514 1513 1513 1512 1510 1509 1507 1505 1503 1502 1501 1499 1487 1488 1491 1491 1491 1491 1492 1493 1493 1492 1490 1488 1486 1480 1477 1475 1474 1472 1470
1526 1525 1525 1523 1524 1522 1523 1522 1520 1518 1518 1518 1517 1515 1513 1511 1509 1509 1508 1507 1507 1506 1503 1502 1500 1498 1495 1480 1485 1485 1487 1487 1487 1487 1489 1490 1491 1492 1489 1486 1481 1480 1481 1474 1471 1471 1471
1523 1521 1522 1521 1521 1520 1519 1520 1518 1516 1515 1513 1513 1513 1511 1508 1505 1504 1504 1503 1502 1502 1500 1498 1497 1496 1485 1477 1478 1478 1480 1482 1484 1486 1487 1486 1490 1489 1487 1485 1482 1482 1481 1486 1468 1467 1466
1519 1517 1517 1517 1517 1516 1516 1515 1514 1514 1513 1512 1510 1510 1509 1506 1503 1500 1499 1498 1498 1498 1495 1495 1494 1493 1479 1474 1471 1470 1473 1476 1480 1482 1485 1486 1488 1486 1485 1489 1493 1482 1492 1483 1469 1462 1466
1514 1513 1512 1513 1513 1512 1512 1512 1511 1511 1510 1509 1508 1507 1506 1505 1502 1498 1496 1495 1495 1493 1492 1492 1491 1495 1475 1470 1468 1467 1469 1474 1476 1479 1483 1484 1483 1485 1487 1492 1502 1487 1480 1468 1469 1464 1468
1508 1508 1507 1507 1508 1507 1507 1508 1507 1507 1506 1506 1504 1503 1504 1504 1502 1498 1495 1493 1494 1492 1488 1482 1478 1473 1466 1467 1465 1467 1468 1472 1474 1476 1479 1480 1486 1487 1484 1478 1473 1473 1470 1471 1461 1455 1461
1502 1502 1501 1501 1502 1502 1502 1502 1502 1503 1503 1502 1501 1502 1502 1502 1500 1498 1497 1495 1495 1499 1483 1476 1472 1468 1463 1463 1467 1461 1468 1469 1469 1471 1473 1481 1475 1472 1472 1470 1470 1467 1467 1469 1459 1454 1458
1496 1496 1495 1496 1496 1496 1496 1496 1497 1498 1497 1498 1498 1499 1500 1500 1498 1498 1495 1493 1492 1492 1485 1463 1458 1450 1449 1456 1456 1456 1460 1462 1463 1468 1468 1471 1463 1466 1467 1465 1465 1461 1465 1467 1464 1453 1451
1488 1489 1488 1488 1489 1489 1490 1491 1492 1492 1492 1493 1494 1496 1498 1498 1500 1496 1494 1493 1492 1492 1489 1453 1442 1430 1437 1443 1443 1445 1449 1456 1458 1460 1462 1462 1460 1461 1461 1462 1456 1466 1454 1455 1457 1465 1479
1481 1481 1481 1480 1481 1483 1484 1484 1485 1486 1487 1489 1490 1493 1495 1497 1497 1495 1494 1491 1490 1493 1503 1433 1424 1423 1422 1432 1433 1432 1437 1449 1450 1450 1456 1451 1452 1453 1457 1453 1449 1458 1451 1453 1455 1466 1468
1472 1472 1472 1472 1473 1475 1476 1477 1479 1480 1481 1483 1486 1489 1492 1494 1495 1495 1493 1491 1491 1495 1477 1428 1416 1418 1422 1429 1429 1427 1433 1441 1444 1448 1448 1444 1443 1444 1445 1444 1444 1446 1452 1455 1456 1466 1489
1462 1463 1463 1464 1466 1467 1468 1470 1472 1473 1476 1479 1482 1484 1489 1492 1490 1494 1495 1493 1495 1485 1434 1422 1419 1418 1421 1425 1429 1428 1435 1437 1445 1452 1451 1444 1441 1436 1438 1445 1442 1446 1459 1488 1496 1495 1495
1453 1453 1454 1455 1457 1459 1460 1463 1465 1468 1471 1474 1478 1481 1484 1486 1490 1492 1494 1494 1486 1443 1442 1413 1419 1423 1421 1420 1423 1425 1431 1435 1432 1435 1445 1452 1453 1432 1428 1435 1445 1448 1457 1488 1496 1496 1480
1442 1443 1444 1445 1447 1449 1451 1455 1458 1461 1465 1469 1474 1475 1477 1480 1485 1490 1493 1486 1459 1445 1437 1435 1425 1434 1423 1416 1420 1423 1424 1427 1422 1426 1441 1443 1439 1420 1424 1427 1433 1445 1455 1449 1471 1468 1486
1431 1432 1433 1435 1437 1439 1442 1446 1449 1453 1457 1463 1466 1468 1467 1476 1481 1486 1485 1462 1447 1441 1444 1439 1449 1441 1435 1426 1420 1422 1423 1411 1418 1417 1423 1426 1438 1421 1421 1425 1425 1433 1437 1460 1461 1489 1492
1420 1420 1422 1424 1426 1428 1431 1435 1439 1444 1450 1456 1459 1458 1454 1468 1475 1477 1455 1449 1447 1449 1450 1450 1448 1443 1437 1438 1439 1429 1414 1408 1406 1410 1415 1422 1430 1427 1418 1421 1428 1436 1440 1441 1446 1460 1480
1407 1408 1410 1412 1414 1416 1420 1424 1428 1434 1440 1445 1449 1447 1449 1458 1463 1454 1444 1449 1448 1447 1450 1450 1446 1442 1439 1436 1438 1435 1419 1407 1398 1401 1406 1413 1424 1437 1427 1414 1409 1417 1430 1437 1462 1458 1456
1393 1394 1396 1397 1400 1404 1407 1412 1417 1422 1429 1436 1438 1441 1443 1448 1439 1438 1445 1444 1446 1447 1443 1441 1441 1435 1435 1432 1439 1432 1413 1402 1400 1398 1402 1411 1429 1450 1435 1416 1404 1413 1419 1423 1430 1442 1452
1377 1379 1380 1383 1386 1389 1393 1398 1403 1410 1418 1427 1431 1433 1434 1434 1430 1434 1440 1436 1435 1435 1437 1438 1432 1436 1436 1436 1434 1437 1430 1407 1401 1398 1401 1409 1430 1436 1438 1425 1411 1416 1414 1417 1428 1451 1448
1361 1362 1364 1366 1370 1374 1378 1384 1390 1398 1407 1417 1418 1412 1413 1413 1418 1427 1426 1423 1429 1432 1433 1434 1428 1431 1431 1434 1435 1435 1427 1421 1410 1395 1402 1408 1425 1428 1418 1406 1404 1408 1412 1416 1420 1423 1434
1344 1346 1348 1351 1354 1359 1364 1370 1377 1386 1396 1404 1402 1403 1406 1408 1414 1419 1418 1415 1420 1424 1424 1422 1424 1422 1424 1428 1429 1428 1425 1425 1418 1403 1400 1401 1416 1417 1419 1406 1400 1410 1405 1406 1410 1411 1415
1329 1330 1333 1336 1340 1345 1350 1357 1364 1373 1383 1383 1390 1394 1398 1396 1402 1406 1401 1410 1414 1419 1417 1417 1413 1416 1421 1418 1425 1424 1427 1428 1426 1420 1404 1400 1411 1416 1422 1409 1404 1417 1408 1402 1404 1403 1407
1315 1316 1318 1322 1326 1330 1336 1342 1350 1358 1364 1371 1375 1387 1392 1382 1384 1389 1399 1408 1412 1413 1411 1405 1407 1409 1408 1420 1420 1423 1422 1426 1422 1414 1409 1402 1406 1418 1429 1424 1424 1398 1389 1392 1398 1398 1397
1301 1302 1304 1308 1312 1317 1322 1328 1335 1342 1350 1358 1364 1369 1371 1375 1381 1386 1394 1399 1407 1405 1402 1404 1404 1408 1411 1416 1424 1428 1424 1420 1413 1410 1404 1397 1403 1417 1419 1420 1406 1395 1390 1393 1396 1402 1391
1286 1287 1289 1292 1297 1302 1308 1315 1322 1329 1337 1347 1353 1359 1369 1374 1370 1381 1387 1391 1392 1396 1401 1399 1405 1406 1409 1410 1418 1425 1432 1423 1409 1400 1394 1396 1402 1414 1421 1418 1415 1395 1389 1386 1385 1409 1388
1270 1270 1271 1274 1279 1285 1293 1300 1308 1317 1325 1334 1339 1351 1363 1365 1370 1377 1377 1381 1386 1388 1392 1398 1398 1402 1401 1410 1416 1424 1418 1414 1419 1408 1401 1409 1410 1418 1427 1424 1409 1382 1380 1385 1406 1414 1383
1250 1250 1251 1254 1260 1267 1275 1285 1295 1305 1314 1322 1329 1339 1350 1358 1362 1367 1372 1375 1379 1383 1388 1389 1397 1394 1396 1408 1408 1410 1418 1406 1406 1398 1397 1401 1410 1415 1421 1419 1417 1383 1381 1390 1389 1383 1383
1234 1233 1234 1238 1243 1249 1258 1269 1281 1294 1306 1316 1324 1329 1344 1354 1356 1362 1366 1371 1374 1379 1382 1385 1385 1386 1389 1395 1397 1400 1407 1404 1399 1406 1388 1399 1400 1401 1400 1401 1389 1384 1381 1380 1380 1384 1386
Wind_Speed
10 10 9 11 16 22 19 18 18 19 20 19 20 22 22 21 21 20 19 19 19 19 20 21 21 21 22 8 23 19 12 11 13 13 13 14 14 19 8 9 16 8 6 9 5 9 12
13 13 12 12 12 13 15 20 21 20 20 21 21 22 23 22 21 20 20 19 18 17 18 19 18 18 16 13 14 4 13 18 16 16 15 14 14 19 21 13 9 21 15 8 4 10 11
14 14 15 15 14 12 14 13 15 17 21 21 21 21 23 24 23 22 20 20 19 17 17 17 14 14 20 36 14 11 15 13 16 17 14 14 12 21 19 8 16 20 8 9 4 6 5
20 19 17 15 16 17 15 14 14 15 16 19 21 20 21 25 25 24 22 21 19 16 17 15 14 11 16 24 18 19 24 18 14 17 20 13 18 24 11 16 18 9 7 6 10 6 9
19 19 18 19 18 18 18 17 15 16 17 17 19 20 20 22 25 26 24 22 19 17 18 14 15 7 17 7 15 14 22 20 17 16 19 20 18 8 9 5 6 6 10 12 15 11 4
21 20 20 20 19 19 20 21 19 18 17 17 17 17 18 20 24 27 25 22 16 19 18 10 8 8 16 8 12 13 10 20 20 16 17 17 12 3 4 2 8 9 6 5 6 6 9
23 22 23 22 22 21 20 20 20 21 19 17 17 17 19 19 22 25 23 16 4 4 6 13 10 13 18 12 9 9 10 18 18 17 10 19 5 12 12 14 17 17 14 8 5 1 4
26 26 26 25 24 23 22 22 21 20 20 18 16 16 17 20 21 23 19 9 2 11 14 20 30 35 37 31 16 17 14 19 16 13 8 9 18 13 16 18 18 20 6 7 7 7 5
28 29 28 28 27 26 25 24 23 21 20 19 17 16 16 16 17 17 7 10 15 11 9 19 34 33 45 31 28 30 18 26 10 11 15 16 9 18 19 20 18 6 5 7 7 6 4
30 29 29 29 29 29 29 27 26 25 22 20 18 17 16 15 10 9 10 9 14 7 5 8 11 13 26 22 11 41 29 21 8 20 18 12 20 20 20 19 8 5 9 9 6 5 2
30 31 31 30 30 30 30 29 28 26 24 22 20 17 15 12 8 12 7 8 6 5 4 7 7 9 11 24 9 17 41 27 18 19 11 15 10 19 20 13 7 8 7 1 3 6 5
33 32 31 31 31 31 31 30 28 26 23 20 19 18 15 16 18 10 14 9 5 3 11 6 7 6 7 26 11 6 25 34 9 14 16 13 21 11 14 10 8 5 4 6 2 1 4
35 34 34 33 33 32 31 29 27 25 23 18 16 17 17 17 21 3 12 9 1 7 5 6 4 7 7 10 15 10 12 14 14 12 17 20 19 13 17 10 7 6 3 2 4 1 6
35 34 34 34 33 31 30 28 26 24 23 22 20 19 21 22 19 10 11 1 11 16 23 6 6 13 9 7 15 19 15 15 18 12 8 14 11 20 9 15 8 7 8 5 6 2 3
38 38 37 36 34 32 31 29 29 29 27 25 22 22 25 23 16 15 8 10 13 18 12 17 24 19 11 10 7 16 21 18 21 20 15 12 13 4 18 5 9 4 6 10 5 2 3
40 39 38 36 35 35 34 33 32 30 27 25 26 26 32 23 17 19 7 25 18 21 21 24 12 9 11 9 6 9 7 8 16 23 18 5 4 16 11 7 8 10 4 4 2 7 5
42 41 39 38 39 38 36 36 34 32 29 25 26 15 16 28 23 19 17 15 20 31 22 14 16 20 22 19 13 15 8 12 15 18 18 22 10 10 11 14 13 5 9 3 2 5 6
44 44 42 42 41 40 39 37 36 33 29 26 24 5 11 30 18 11 19 21 14 18 21 19 15 22 22 17 16 18 23 8 15 5 23 11 4 10 20 15 21 17 9 9 5 5 4
45 44 44 43 42 41 40 39 37 35 31 29 12 10 23 41 14 15 13 21 27 20 20 12 12 14 21 21 8 13 10 19 7 5 7 6 4 9 12 12 13 17 7 8 6 4 6
46 46 45 45 44 43 42 42 40 38 34 33 11 5 12 38 19 15 16 20 22 27 25 29 21 19 17 20 7 10 18 8 12 8 12 11 5 15 14 11 3 7 9 9 7 5 4
49 48 47 46 44 43 42 41 40 39 37 37 18 7 13 9 20 15 20 10 24 20 24 11 15 21 19 13 10 9 7 18 14 11 7 7 16 19 18 18 11 9 10 12 11 11 7
48 46 45 45 44 43 42 42 41 40 38 42 16 9 19 10 27 24 21 17 20 21 20 21 23 21 13 16 9 12 17 10 11 9 7 5 5 4 15 13 14 14 11 15 13 10 7
41 41 41 41 42 42 43 44 44 44 42 42 38 27 11 18 15 20 23 27 20 19 19 32 21 20 19 20 11 15 8 16 11 10 5 8 5 4 13 12 7 10 11 8 9 13 9
36 37 37 38 39 39 40 43 46 48 53 49 37 26 21 7 19 18 21 26 23 21 21 23 27 18 27 25 6 3 4 17 20 20 17 4 6 4 4 2 14 4 4 5 9 11 6
38 39 40 41 41 41 40 41 42 45 53 60 34 34 25 16 9 20 18 20 28 34 28 25 28 28 21 19 5 4 5 3 9 14 14 3 3 2 5 10 4 11 5 4 5 8 6
38 40 40 41 43 43 43 45 44 45 50 61 52 40 38 14 19 21 20 22 13 18 19 27 33 24 20 6 4 6 5 4 4 5 9 7 3 4 2 4 9 3 9 9 3 6 4
42 42 44 44 45 45 46 46 47 46 49 62 51 45 33 26 23 32 16 19 26 18 10 13 15 19 23 4 6 5 9 10 5 5 4 3 3 5 1 2 6 5 13 8 6 7 8
42 41 40 42 46 49 49 47 48 48 49 48 47 51 42 22 13 40 23 20 21 18 8 8 12 14 2 5 4 4 4 8 6 6 4 5 6 6 4 4 4 15 2 8 5 12 17
35 36 38 38 38 40 46 48 48 48 48 46 25 49 52 17 17 22 29 26 29 21 6 19 12 10 9 4 4 3 3 2 7 5 3 6 5 4 4 4 9 9 7 5 1 6 5
Wind_Direction
323 314 319 310 290 274 273 283 288 294 301 297 295 295 290 290 292 294 299 305 310 317 314 309 310 309 313 282 257 275 291 286 259 252 238 231 256 264 251 265 291 295 294 305 334 330 333
309 313 313 311 305 326 291 280 283 286 290 298 301 301 297 291 287 288 293 297 303 312 313 313 313 307 305 263 292 230 256 283 268 248 245 226 245 260 269 281 296 289 303 293 343 297 274
290 292 298 303 307 311 304 309 311 298 286 287 296 302 302 298 294 285 284 287 295 306 307 309 310 304 286 262 263 205 228 242 271 237 248 225 236 260 284 319 300 317 320 310 247 247 270
278 278 283 284 293 298 298 303 306 310 312 301 285 298 299 302 297 290 283 281 286 298 298 303 293 289 264 299 283 250 213 234 236 245 242 251 255 268 273 297 303 304 306 277 263 187 266
278 276 277 278 277 282 290 293 296 300 305 307 310 283 300 304 307 296 288 283 285 291 287 299 287 262 270 324 273 264 212 232 230 227 248 252 267 274 293 282 298 268 257 265 277 184 197
279 279 277 277 278 280 283 286 292 292 296 299 305 295 296 305 313 315 301 288 289 278 278 286 269 268 263 279 276 283 238 214 219 226 244 243 253 210 274 184 241 251 253 268 253 235 191
277 277 276 277 279 279 279 280 283 287 290 292 297 305 292 298 312 321 316 318 332 308 313 219 228 221 275 272 296 268 222 205 216 233 205 237 208 225 230 228 241 258 274 276 305 260 192
277 276 275 277 279 280 281 283 283 280 281 282 287 291 298 296 299 314 321 299 194 329 295 259 261 257 259 264 282 253 225 195 205 222 199 233 228 222 236 252 254 262 299 306 297 184 183
274 275 273 274 276 277 280 282 283 282 280 277 279 287 294 304 299 327 312 304 315 326 283 272 250 245 242 241 237 242 238 219 200 212 224 213 237 218 235 249 256 251 249 268 262 297 323
274 273 273 273 274 276 278 279 281 281 279 274 275 281 291 301 298 322 316 292 286 289 290 268 219 245 224 219 235 230 221 225 214 214 221 235 230 245 232 243 239 235 251 254 3 12 274
273 272 272 272 273 275 275 276 277 276 275 272 267 271 280 285 264 273 286 286 145 151 299 240 208 170 198 178 168 215 208 226 208 218 185 222 218 227 243 247 199 249 277 297 338 324 353
271 272 273 273 272 272 272 273 273 272 272 270 265 258 269 266 263 288 333 296 140 173 242 267 152 167 143 192 223 5 188 215 247 215 238 241 235 240 237 238 214 236 305 335 265 216 307
273 273 273 272 272 272 272 270 269 267 265 262 260 249 247 253 250 231 306 323 182 223 248 242 200 164 219 186 214 232 197 194 202 196 224 246 252 238 236 228 219 191 130 351 331 356 225
274 273 272 271 272 270 268 264 265 264 260 257 250 245 244 242 246 218 301 230 226 239 240 285 351 311 188 203 205 220 223 214 216 226 192 221 236 221 216 209 193 205 159 158 201 207 346
273 273 273 273 273 271 267 262 260 259 253 247 247 243 243 232 233 207 235 224 223 232 257 242 279 303 239 212 224 200 227 233 213 211 214 197 234 180 224 200 160 235 187 194 137 26 40
275 274 273 272 271 267 263 261 260 254 248 240 237 239 238 223 210 207 226 228 225 234 251 273 297 297 305 320 226 192 202 228 232 212 213 260 233 227 241 195 207 196 193 215 216 162 214
273 271 270 270 267 262 260 258 254 248 241 234 232 235 231 209 195 207 222 221 231 250 262 266 268 277 288 304 308 310 219 237 201 206 200 223 246 268 258 202 189 206 220 226 154 169 179
272 271 268 267 263 259 257 254 248 243 236 228 221 223 185 194 203 209 228 223 255 261 245 256 267 278 273 290 307 312 261 276 220 215 202 189 55 245 256 271 194 196 184 181 149 262 210
274 272 270 266 261 256 254 250 246 240 228 217 211 203 167 190 213 215 221 225 244 250 251 255 256 245 272 286 303 314 252 265 213 131 179 141 195 261 287 267 204 190 180 191 190 162 221
275 272 268 264 260 256 253 247 243 236 227 211 187 187 194 200 216 216 216 230 234 229 248 252 264 266 266 282 248 290 305 301 266 152 91 138 181 233 239 262 216 182 202 220 199 192 221
275 271 267 263 258 254 250 243 239 233 224 207 202 214 188 200 205 217 207 214 226 238 224 237 261 251 254 261 292 278 311 323 296 174 124 137 207 230 270 222 203 226 196 221 225 224 184
270 267 265 262 258 253 248 243 237 228 219 207 207 193 188 206 202 214 220 212 230 219 231 226 236 245 261 248 224 284 315 323 277 304 155 146 212 238 271 272 224 245 241 217 227 238 236
267 263 258 255 252 248 243 238 234 226 219 209 214 215 201 204 198 204 216 220 223 231 251 236 235 241 241 249 211 208 249 282 303 310 290 176 146 162 255 287 289 270 218 223 226 239 208
263 261 257 252 248 244 241 235 230 224 218 212 210 201 206 226 203 206 205 216 225 229 238 254 232 239 243 241 246 314 283 298 314 302 290 149 120 153 197 290 241 237 183 208 217 244 208
267 263 259 254 249 244 238 234 231 227 220 214 209 197 201 216 203 199 195 199 214 229 238 249 254 249 263 227 174 349 332 298 240 261 253 177 135 169 163 223 284 268 234 229 216 266 202
268 264 258 253 249 243 238 234 229 227 220 217 212 205 206 203 219 203 195 202 206 217 234 247 253 259 266 212 178 175 247 296 238 223 218 199 96 101 7 211 235 132 248 272 219 246 242
271 264 259 255 250 242 236 232 227 224 221 216 209 205 199 213 213 213 204 205 211 212 226 228 232 247 244 185 208 183 217 169 275 263 179 144 74 228 287 262 301 239 206 240 216 234 231
274 265 257 251 245 241 237 229 224 220 219 213 208 204 194 202 213 212 203 213 211 221 207 215 207 236 203 180 170 179 171 212 219 248 212 153 161 183 187 230 232 273 43 191 222 237 242
274 265 256 249 241 231 226 222 217 215 214 210 209 198 198 198 206 203 224 220 221 225 225 223 216 214 199 140 195 153 286 165 174 224 184 181 199 194 169 214 313 313 284 37 12 8 8